Weather History for Lakeville, MN

Change the Weather History Date:

Wednesday, July 11, 2012

  Actual Average Record
Temperature  
Mean Temperature 70 °F -  
Max Temperature 84 °F 83 °F 98 °F (1980)
Min Temperature 55 °F 62 °F 35 °F (2001)
Cooling Degree Days 4    
Growing Degree Days 20 (Base 50)    
Moisture  
Dew Point 58 °F    
Average Humidity 65    
Maximum Humidity 100    
Minimum Humidity 37    
Precipitation  
Precipitation 0.00 in - - ()
Sea Level Pressure  
Sea Level Pressure 30.12 in    
Wind  
Wind Speed 2 mph (SSW)    
Max Wind Speed 10 mph    
Max Gust Speed -    
Visibility 9 miles    
Events      
Averages and records for this station are not official NWS values.
T = Trace of Precipitation, MM = Missing Value Source: NWS Daily Summary

Daily Weather History Graph

Daily Weather History Graph

Search for Another Location

Airport:

Trip Planner

Search our weather history database for the weather conditions in past years. The results will help you decide how hot, cold, wet, or windy it might be!

Date:

Astronomy

Jul. 11, 2012 Rise Set
Actual Time 5:38 AM CDT 8:57 PM CDT
Civil Twilight 5:02 AM CDT 9:33 PM CDT
Nautical Twilight 4:16 AM CDT 10:20 PM CDT
Astronomical Twilight 3:17 AM CDT 11:18 PM CDT
Moon 12:21 AM CDT (7/11) 2:26 PM CDT (7/11)
Length of Visible Light 16h 30m
Length of Day
15h 18m
Last Quarter, 44% of the Moon is Illuminated
Jul 11
Last Quarter
Jul 18
New
Jul 26
First Quarter
Aug 1
Full
Aug 9
Last Quarter

Hourly Weather History & Observations

Time (CDT) Temp. Heat Index Dew Point Humidity Pressure Visibility Wind Dir Wind Speed Gust Speed Precip Events Conditions
12:11 AM 60.8 °F - 57.2 °F 88% 30.14 in 7.0 mi Calm Calm - N/A   Clear
12:31 AM 59.0 °F - 57.2 °F 94% 30.14 in 10.0 mi Calm Calm - N/A   Clear
12:50 AM 60.8 °F - 57.2 °F 88% 30.14 in 10.0 mi Calm Calm - N/A   Clear
1:11 AM 57.2 °F - 55.4 °F 94% 30.13 in 10.0 mi Calm Calm - N/A   Clear
1:31 AM 57.2 °F - 57.2 °F 100% 30.13 in 10.0 mi Calm Calm - N/A   Clear
1:50 AM 59.0 °F - 57.2 °F 94% 30.13 in 10.0 mi Calm Calm - N/A   Clear
2:11 AM 57.2 °F - 55.4 °F 94% 30.14 in 10.0 mi Calm Calm - N/A   Clear
2:31 AM 57.2 °F - 55.4 °F 94% 30.14 in 10.0 mi Calm Calm - N/A   Clear
2:50 AM 57.2 °F - 55.4 °F 94% 30.14 in 5.0 mi Calm Calm - N/A   Clear
3:11 AM 57.2 °F - 55.4 °F 94% 30.14 in 10.0 mi Calm Calm - N/A   Clear
3:31 AM 55.4 °F - 55.4 °F 100% 30.15 in 10.0 mi Calm Calm - N/A   Clear
3:50 AM 55.4 °F - 53.6 °F 94% 30.15 in 10.0 mi Calm Calm - N/A   Clear
4:11 AM 55.4 °F - 55.4 °F 100% 30.15 in 10.0 mi Calm Calm - N/A   Clear
4:31 AM 55.4 °F - 55.4 °F 100% 30.15 in 7.0 mi Calm Calm - N/A   Clear
5:31 AM 55.4 °F - 53.6 °F 94% 30.16 in 3.0 mi Calm Calm - N/A   Clear
6:11 AM 55.4 °F - 55.4 °F 100% 30.16 in 1.8 mi Calm Calm - N/A   Mist
6:31 AM 57.2 °F - 55.4 °F 94% 30.16 in 2.5 mi Calm Calm - N/A   Clear
6:50 AM 59.0 °F - 57.2 °F 94% 30.16 in 2.0 mi Calm Calm - N/A   Clear
7:11 AM 62.6 °F - 57.2 °F 82% 30.16 in 3.0 mi Calm Calm - N/A   Haze
7:30 AM 64.4 °F - 57.2 °F 77% 30.15 in 3.0 mi Calm Calm - N/A   Haze
7:51 AM 66.2 °F - 59.0 °F 78% 30.16 in 2.0 mi Calm Calm - N/A   Haze
8:11 AM 69.8 °F - 60.8 °F 73% 30.16 in 7.0 mi Calm Calm - N/A   Clear
8:30 AM 71.6 °F - 60.8 °F 69% 30.15 in 10.0 mi West 3.5 mph - N/A   Clear
8:51 AM 75.2 °F - 60.8 °F 61% 30.16 in 7.0 mi WSW 4.6 mph - N/A   Clear
9:11 AM 75.2 °F - 60.8 °F 61% 30.15 in 10.0 mi WSW 5.8 mph - N/A   Clear
9:30 AM 77.0 °F - 60.8 °F 57% 30.15 in 10.0 mi SW 3.5 mph - N/A   Clear
9:51 AM 78.8 °F - 60.8 °F 54% 30.15 in 10.0 mi WSW 4.6 mph - N/A   Clear
10:11 AM 78.8 °F - 60.8 °F 54% 30.15 in 10.0 mi West 3.5 mph - N/A   Clear
10:30 AM 80.6 °F 81.5 °F 60.8 °F 51% 30.15 in 10.0 mi WSW 3.5 mph - N/A   Clear
10:51 AM 80.6 °F 81.5 °F 60.8 °F 51% 30.15 in 10.0 mi West 5.8 mph - N/A   Clear
11:11 AM 80.6 °F 81.5 °F 60.8 °F 51% 30.15 in 10.0 mi South 5.8 mph - N/A   Clear
11:30 AM 80.6 °F 81.5 °F 60.8 °F 51% 30.15 in 10.0 mi WSW 5.8 mph - N/A   Clear
11:51 AM 82.4 °F 81.7 °F 55.4 °F 39% 30.14 in 10.0 mi South 9.2 mph - N/A   Scattered Clouds
12:11 PM 82.4 °F 82.0 °F 57.2 °F 42% 30.14 in 10.0 mi South 5.8 mph - N/A   Clear
12:30 PM 82.4 °F 82.0 °F 57.2 °F 42% 30.14 in 10.0 mi SSW 4.6 mph - N/A   Clear
12:51 PM 82.4 °F 82.5 °F 59.0 °F 45% 30.13 in 10.0 mi South 6.9 mph - N/A   Clear
1:11 PM 82.4 °F 82.0 °F 57.2 °F 42% 30.13 in 10.0 mi SSW 6.9 mph - N/A   Scattered Clouds
1:30 PM 82.4 °F 82.0 °F 57.2 °F 42% 30.13 in 10.0 mi SSW 6.9 mph - N/A   Scattered Clouds
1:51 PM 84.2 °F 83.5 °F 57.2 °F 40% 30.12 in 10.0 mi South 5.8 mph - N/A   Scattered Clouds
2:11 PM 84.2 °F 83.5 °F 57.2 °F 40% 30.12 in 10.0 mi SSW 5.8 mph - N/A   Clear
2:30 PM 84.2 °F 83.5 °F 57.2 °F 40% 30.12 in 10.0 mi SSW 5.8 mph - N/A   Clear
2:51 PM 84.2 °F 83.5 °F 57.2 °F 40% 30.11 in 10.0 mi South 10.4 mph - N/A   Clear
3:11 PM 84.2 °F 83.5 °F 57.2 °F 40% 30.11 in 10.0 mi SSE 6.9 mph - N/A   Clear
3:30 PM 84.2 °F 83.0 °F 55.4 °F 37% 30.11 in 10.0 mi South 6.9 mph - N/A   Clear
3:51 PM 84.2 °F 83.0 °F 55.4 °F 37% 30.10 in 10.0 mi SSW 5.8 mph - N/A   Clear
4:11 PM 84.2 °F 83.5 °F 57.2 °F 40% 30.10 in 5.0 mi WSW 3.5 mph - N/A   Haze
4:31 PM 84.2 °F 83.0 °F 55.4 °F 37% 30.10 in 10.0 mi SW 5.8 mph - N/A   Clear
4:51 PM 84.2 °F 83.0 °F 55.4 °F 37% 30.10 in 7.0 mi South 5.8 mph - N/A   Clear
5:11 PM 84.2 °F 83.0 °F 55.4 °F 37% 30.10 in 10.0 mi SSW 5.8 mph - N/A   Clear
5:31 PM 82.4 °F 81.7 °F 55.4 °F 39% 30.09 in 10.0 mi South 9.2 mph - N/A   Clear
5:51 PM 82.4 °F 81.7 °F 55.4 °F 39% 30.08 in 7.0 mi South 8.1 mph - N/A   Clear
6:10 PM 82.4 °F 81.7 °F 55.4 °F 39% 30.08 in 10.0 mi SSW 4.6 mph - N/A   Clear
6:31 PM 82.4 °F 82.0 °F 57.2 °F 42% 30.07 in 10.0 mi SSW 8.1 mph - N/A   Clear
6:50 PM 80.6 °F 80.8 °F 57.2 °F 45% 30.07 in 10.0 mi SSW 4.6 mph - N/A   Clear
7:11 PM 80.6 °F 80.8 °F 57.2 °F 45% 30.07 in 10.0 mi South 5.8 mph - N/A   Clear
7:31 PM 80.6 °F 81.1 °F 59.0 °F 48% 30.07 in 10.0 mi Calm Calm - N/A   Clear
7:50 PM 78.8 °F - 60.8 °F 54% 30.06 in 7.0 mi Calm Calm - N/A   Clear
8:11 PM 77.0 °F - 62.6 °F 61% 30.06 in 7.0 mi Calm Calm - N/A   Clear
8:51 PM 73.4 °F - 62.6 °F 69% 30.06 in 10.0 mi Calm Calm - N/A   Clear
9:10 PM 71.6 °F - 60.8 °F 69% 30.05 in 10.0 mi Calm Calm - N/A   Clear
9:31 PM 71.6 °F - 60.8 °F 69% 30.05 in 10.0 mi Calm Calm - N/A   Clear
9:51 PM 69.8 °F - 60.8 °F 73% 30.06 in 10.0 mi Calm Calm - N/A   Clear
10:10 PM 68.0 °F - 62.6 °F 83% 30.06 in 10.0 mi Calm Calm - N/A   Clear
10:31 PM 66.2 °F - 60.8 °F 83% 30.06 in 7.0 mi Calm Calm - N/A   Clear
10:51 PM 66.2 °F - 60.8 °F 83% 30.06 in 7.0 mi Calm Calm - N/A   Clear
11:10 PM 66.2 °F - 60.8 °F 83% 30.06 in 10.0 mi Calm Calm - N/A   Clear
11:31 PM 66.2 °F - 60.8 °F 83% 30.05 in 5.0 mi Calm Calm - N/A   Haze
11:51 PM 64.4 °F - 60.8 °F 88% 30.06 in 10.0 mi Calm Calm - N/A   Clear